Location: Martley
(52.2333°N, 2.3667°W)
Time: 02:59:29
(UTC+00:00)

Cosmos 1844 - Pass Details

Date: 11 December 2019
Orbit: 824 x 866 km, 70.9° (Epoch: 25 January)

Event Time Altitude Azimuth Distance (km) Brightness Sun altitude
Rises 06:53:25 0° 199° (SSW) 3,438 6.9 -10.6°
Reaches altitude 10° 06:55:53 10° 197° (SSW) 2,504 6.3 -10.3°
Maximum altitude 07:01:35 67° 116° (ESE) 935 4.2 -9.5°
Drops below altitude 10° 07:07:19 10° 35° (NE) 2,508 6.3 -8.7°
Sets 07:09:47 0° 33° (NNE) 3,443 7.0 -8.4°
